This is the latest recevied weather packets stored in our database for station/object DJ0JJ-11. If no packets are shown the sender has not sent any weather packets the latest 10 day(s).
| Time | Temp. | Humidity | Pressure | Rain* | Wind** | Luminosity | Snow |
|---|---|---|---|---|---|---|---|
| 1777570100 | 18.33° C | 21% | 1024.4 hPa | - | - | - | - |
| 1777569200 | 18.89° C | 20% | 1024.3 hPa | - | - | - | - |
| 1777568300 | 18.89° C | 21% | 1024.3 hPa | - | - | - | - |
| 1777567400 | 19.44° C | 20% | 1024.3 hPa | - | - | - | - |
| 1777566500 | 19.44° C | 20% | 1024.2 hPa | - | - | - | - |
| 1777565600 | 19.44° C | 21% | 1024.2 hPa | - | - | - | - |
| 1777564700 | 19.44° C | 20% | 1024.2 hPa | - | - | - | - |
| 1777563799 | 19.44° C | 21% | 1024.3 hPa | - | - | - | - |
| 1777562899 | 19.44° C | 22% | 1024.3 hPa | - | - | - | - |
| 1777561999 | 19.44° C | 22% | 1024.2 hPa | - | - | - | - |
| 1777561099 | 19.44° C | 23% | 1024.4 hPa | - | - | - | - |
| 1777560199 | 19.44° C | 23% | 1024.6 hPa | - | - | - | - |
| 1777559299 | 19.44° C | 22% | 1024.7 hPa | - | - | - | - |
| 1777558399 | 18.89° C | 23% | 1024.8 hPa | - | - | - | - |
| 1777557498 | 18.89° C | 24% | 1024.7 hPa | - | - | - | - |
| 1777556598 | 18.33° C | 23% | 1024.8 hPa | - | - | - | - |
| 1777555698 | 18.33° C | 23% | 1024.8 hPa | - | - | - | - |
| 1777554798 | 18.33° C | 23% | 1024.9 hPa | - | - | - | - |
| 1777553898 | 18.33° C | 24% | 1024.9 hPa | - | - | - | - |
| 1777552998 | 18.33° C | 23% | 1024.9 hPa | - | - | - | - |
| 1777552097 | 17.78° C | 26% | 1025.1 hPa | - | - | - | - |
| 1777551197 | 17.78° C | 26% | 1025.2 hPa | - | - | - | - |
| 1777550297 | 17.22° C | 26% | 1025.3 hPa | - | - | - | - |
| 1777549397 | 17.22° C | 27% | 1025.1 hPa | - | - | - | - |
| 1777548497 | 17.22° C | 29% | 1025.3 hPa | - | - | - | - |
* Rain since midnight (hover to see other rain measurements)
** Current wind speed in m/s (hover to see current wind gust speed)